Regional Weather Roundup
Issued by NWS

Home | Current Version | Previous Version | Text Only | Print | Product List | Glossary On
Versions: 1 2 3 4 5 6 7 8 9 10 11 12 13 14 15 16 17 18 19 20 21 22 23 24 25 26 27 28 29 30 31 32 33 34 35 36 37 38 39 40 41 42 43 44 45 46 47 48 49 50
000
ASUS44 KMEG 291010
RWRTN
TENNESSEE HOURLY STATE WEATHER ROUNDUP
NATIONAL WEATHER SERVICE MEMPHIS TN
500 AM CDT TUE JUL 29 2014

TNZ002-004-019-021-049-052-054-088>092-291100-
WEST TENNESSEE

CITY           SKY/WX    TMP DP  RH WIND       PRES   REMARKS
MEMPHIS INTL   PTCLDY    71  60  68 N7        30.08R
NWS MEMPHIS      N/A     69 N/A N/A MISG        N/A
JACKSON        CLEAR     63  58  83 N6        30.08R
DYERSBURG      CLEAR     63  52  67 N6        30.10R
UNION CITY     CLEAR     57  55  94 N3        30.09R
PARIS          CLEAR     53  52  97 CALM      30.09R
LEXINGTON      CLEAR     61  55  82 N6        30.06R
SAVANNAH       CLEAR     61  61 100 CALM      30.05S
$$

TNZ008-025-027-028-033-062-065-066-291100-
NORTH MIDDLE TENNESSEE

CITY           SKY/WX    TMP DP  RH WIND       PRES   REMARKS
NASHVILLE      CLEAR     62  53  72 N10       30.05R
DICKSON        CLEAR     57  54  88 N5        30.06S
PORTLAND       CLEAR     55  54  94 N3        30.05S
CLARKSVILLE    CLEAR     56  52  86 N6        30.07S
LEBANON        CLEAR     59  55  86 N3        30.03S
SMYRNA         PTCLDY    63  56  78 N9        30.05S
MURFREESBORO   CLEAR     63  56  78 NW5       30.04R
COOKEVILLE     CLEAR     55  55 100 CALM      30.03R
LIVINGSTON     CLOUDY    60  57  89 N6        30.04R
CROSSVILLE     CLEAR     59  56  89 NW5       30.04S
$$

TNZ061-075-076-078-094-096-097-291100-
SOUTH MIDDLE TENNESSEE

CITY           SKY/WX    TMP DP  RH WIND       PRES   REMARKS
LEWISBURG      CLEAR     62  57  83 CALM      30.04S
FAYETTEVILLE   CLEAR     61  57  88 N12       30.03S
TULLAHOMA      CLEAR     61  55  82 CALM      30.05S
WINCHESTER     CLEAR     61  57  88 CALM      30.04R
MCMINNVILLE    CLEAR     57  57 100 CALM      30.04R
COLUMBIA       CLEAR     63  59  88 CALM      30.04R
SHELBYVILLE    CLEAR     61  57  88 N5        30.05S
$$

TNZ017-018-042-046-047-291100-
NORTHEAST TENNESSEE

CITY           SKY/WX    TMP DP  RH WIND       PRES   REMARKS
TRI CITIES     PTCLDY    56  53  90 CALM      30.00R FOG
ELIZABETHTON   MOSUNNY   55  54  94 CALM        N/A
$$

TNZ012-013-036-069-073-074-291100-
CENTRAL EAST TENNESSEE

CITY           SKY/WX    TMP DP  RH WIND       PRES   REMARKS
KNOXVILLE      CLEAR     62  59  90 E3        29.99S
OAK RIDGE      CLEAR     62  60  93 CALM      30.01S
GATLINBURG     MOSUNNY   59  57  94 CALM      30.00R
MORRISTOWN     SUNNY     57  57 100 CALM      30.01S
$$

TNZ083-085-099-291100-
SOUTHEAST TENNESSEE

CITY           SKY/WX    TMP DP  RH WIND       PRES   REMARKS
CHATTANOOGA    CLEAR     65  59  81 N6        30.00S
$$

SKY/WX REPORTED AS FAIR MEANS FEW OR NO CLOUDS BELOW
12 THOUSAND FEET.



USA.gov is the U.S. government's official web portal to all federal, state and local government web resources and services.